Location: Newark
(48.6461°N, 4.3644°W)
Time: 06:01:57
(UTC+00:00)

Transit 4A - Pass Details

Date: 31 January 2020
Orbit: 872 x 973 km, 66.8° (Epoch: 19 February)

Event Time Altitude Azimuth Distance (km) Brightness Sun altitude
Rises 08:48:11 0° 285° (WNW) 3,504 10.3 7.5°
Reaches altitude 10° 08:51:52 10° 308° (NW) 2,550 9.6 7.9°
Maximum altitude 08:55:14 15° 343° (NNW) 2,181 9.4 8.4°
Drops below altitude 10° 08:58:35 10° 19° (NNE) 2,535 10.0 8.8°
Sets 09:02:15 0° 42° (NE) 3,471 10.9 9.3°
